Location: Santa Barbara
(34.4500°N, 119.7700°W)
Time: 11:11:14
(UTC-08:00)

Cosmos 1892 Rocket - Visible Passes

Search period start: 19 February 2017 00:00
Search period end: 01 March 2017 00:00
Orbit: 605 x 635 km, 82.5° (Epoch: 18 February)

Date Brightness Start Highest point End Pass type
(mag) Time Alt. Az. Time Alt. Az. Time Alt. Az.
24 Feb 5.5 19:42:35 10° N 19:43:44 18° N 19:43:44 18° N visible
25 Feb 5.0 20:00:10 10° N 20:02:24 30° NNW 20:02:24 30° NNW visible
26 Feb 5.1 18:41:33 10° NE 18:44:05 15° ENE 18:44:05 15° ENE visible
26 Feb 5.2 20:18:07 10° NNW 20:21:22 33° WNW 20:21:22 33° WNW visible
27 Feb 4.3 18:58:08 10° NNE 19:01:57 29° ENE 19:03:27 23° ESE visible
27 Feb 6.2 20:36:36 10° NW 20:39:34 18° W 20:40:45 16° WSW visible
28 Feb 3.5 19:15:22 10° N 19:19:41 59° E 19:23:42 12° SSE visible
